www.pogodaiklimat.ru

Погода и климат >> Архив погоды >> Мальдивы >> Каадедхдху


ПОГОДА на Каадедхдху

  • Прогноз погоды на Каадедхдху
  • Монитор погоды на Каадедхдху

АРХИВ ПОГОДЫ на Каадедхдху

Время (UTC), дата Ветер
(напр.,м/с)
 
Видим.   Явления Облачность Т
(С)
Тd
(С)
f
(%)
Тe
(С)
Тes
(С)
Комфортность P
(гПа)
Po
(гПа)
Тmin
(С)
Tmax
(С)
R
(мм)
R24
(мм)
S
(см)
21 16.01 С 1 12 км 9/3 540 м
[Cu med, cong Ac trans Cs]
+27.3 +25.2 88 +39 +39 очень
душно
1009.5 1009.4
00 17.01 12 км 9/4 540 м
[Cu med, cong Ac trans Cs]
+27.4 +24.7 85 1009.3 1009.2 0.0
03 17.01 12 км 9/5 500 м
[Cb cap Ac trans Cs]
+27.8 +24.5 82 1011.7 1011.6 +26.6
06 17.01 Ю 1 12 км 9/5 500 м
[Cb cap Ac trans Cs]
+28.0 +25.2 85 +41 +47 опасность
перегрева
1012.0 1011.9
09 17.01 З 1 9000 м в посл. час ливневой дождь 9/5 500 м
[Cb cap Ac cuf Ci sp]
+28.0 +25.2 85 +41 +46 опасность
перегрева
1009.8 1009.7
12 17.01 С 1 6000 м слаб. дождь 10/6 480 м
[Cb cap As op]
+24.8 +24.5 98 +35 +35 очень
душно
1009.9 1009.8 +29.4 45
15 17.01 В 1 9000 м {дождь} 9/4 540 м
[Cb cap Ac As]
+25.8 +24.6 93 +36 +36 очень
душно
1011.3 1011.2
18 17.01 В 2 10 км {дождь} 9/4 540 м
[Cb cap Ac As]
+26.4 +24.7 90 +37 +37 очень
душно
1012.2 1012.1 1
21 17.01 В 2 10 км {дождь} 9/4 540 м
[Cb cap Ac As]
+26.4 +24.7 90 +37 +37 очень
душно
1012.2 1012.1 1
00 18.01 В 1 10 км 9/5 500 м
[Cb cap Ac As]
+26.6 +23.5 83 +36 +36 очень
душно
1009.5 1009.4 1
03 18.01 В 1 4000 м слаб. ливневой дождь 9/6 480 м
[Cb cap Ac As]
+26.0 +24.6 92 +37 +38 очень
душно
1012.2 1012.1 +23.6
06 18.01 6000 м слаб. дождь 10/5 480 м
[Cb cap As op]
+25.0 +24.3 96 1013.0 1012.9 6
09 18.01 З 1 6000 м мгла {дождь} 9/3 500 м
[Cu med, cong Ac As]
+26.4 +24.8 91 +38 +43 очень
душно
1010.8 1010.7
12 18.01 З 1 5000 м мгла {дождь} 9/3 500 м
[Cu med, cong Ac As]
+26.4 +24.7 90 +37 +38 очень
душно
1010.3 1010.2 +27.5 8
15 18.01 З 2 5000 м мгла 9/4 500 м
[Cb cap Ac As]
+26.3 +24.4 89 +37 +37 очень
душно
1012.6 1012.5
18 18.01 З 2 6000 м мгла 9/3 500 м
[Cu med, cong Ac As]
+26.4 +24.4 89 +37 +37 очень
душно
1013.4 1013.3 15
21 18.01 З 2 6000 м слаб. ливневой дождь 9/4 500 м
[Cb cap Ac As]
+26.1 +24.2 89 +36 +36 очень
душно
1011.2 1011.1
00 19.01 С 1 6000 м мгла 9/4 500 м
[Cb cap Ac As]
+26.0 +23.8 88 +36 +36 очень
душно
1010.4 1010.3 16
03 19.01 С 2 5000 м в посл. час дождь 9/3 500 м
[Cu med, cong Ac As]
+27.4 +23.9 81 +38 +39 очень
душно
1012.6 1012.5 +23.5
06 19.01 С 3 5000 м в посл. час дождь 9/4 540 м
[Cu med, cong Ac trans Cs]
+29.6 +24.1 72 +41 +47 опасность
перегрева
1012.9 1012.8 0.2
09 19.01 С 2 5000 м слаб. ливневой дождь 9/4 500 м
[Cb cap Ac trans Cs]
+27.8 +24.0 80 +39 +44 очень
душно
1010.7 1010.6
12 19.01 С 4 5000 м в посл. час дождь {ливн. осадки} 9/4 500 м
[Cb cap Ac As]
+25.8 +24.4 92 +36 +36 очень
душно
1010.4 1010.3 +29.6 9
15 19.01 С 2 5000 м мгла 9/3 540 м
[Cu med, cong Ac As]
+27.6 +23.8 80 +38 +38 очень
душно
1012.9 1012.8
21 19.01 С 2 5000 м мгла 9/3 540 м
[Cu med, cong Ac trans Cs]
+27.2 +23.3 79 +37 +37 очень
душно
1011.3 1011.2
00 20.01 С 1 5000 м мгла 9/3 540 м
[Cu med, cong Ac trans Cs]
+27.0 +23.5 81 +37 +37 очень
душно
1011.4 1011.3 0.0
03 20.01 С 1 5000 м мгла 9/3 540 м
[Cu med, cong Ac As]
+27.5 +23.3 78 +37 +39 очень
душно
1014.1 1014.0 +25.0
06 20.01 СВ 2 5000 м мгла 9/3 540 м
[Cu med, cong Ac trans Cs]
+29.3 +23.3 70 +40 +47 очень
душно
1014.1 1014.0
09 20.01 СВ 2 5000 м мгла 9/3 540 м
[Cu med, cong Ac trans Cs]
+29.3 +23.3 70 +40 +46 очень
душно
1014.1 1014.0
12 20.01 С 2 5000 м мгла 9/4 540 м
[Cb cap Ac trans Cs]
+28.2 +23.2 74 +38 +38 очень
душно
1011.3 1011.2 +30.0
15 20.01 С 2 5000 м мгла 6/3 540 м
[Cu med, cong Ac trans Ci sp]
+27.4 +21.6 71 +35 +35 очень
душно
1013.5 1013.4
18 20.01 С 2 6000 м мгла 9/3 540 м
[Cu med, cong Ci sp]
+27.4 +22.1 73 +36 +36 очень
душно
1013.7 1013.6
21 20.01 С 1 6000 м мгла 8/3 540 м
[Cu med, cong Ac trans Cs]
+27.0 +21.9 74 +35 +35 очень
душно
1011.5 1011.4
00 21.01 С 1 6000 м мгла 9/3 540 м
[Cu med, cong Ac und]
+26.8 +22.2 76 +35 +35 очень
душно
1011.8 1011.7
03 21.01 С 2 6000 м мгла 9/3 540 м
[Cu med, cong Ac und]
+27.4 +22.7 76 +36 +38 очень
душно
1014.2 1014.1 +26.0
06 21.01 С 2 7000 м мгла 9/3 540 м
[Cu med, cong Ac trans Cs]
+28.8 +23.3 72 +39 +47 очень
душно
1014.8 1014.7
09 21.01 С 2 8000 м мгла 9/3 540 м
[Cu med, cong Ac trans Cs]
+28.9 +22.7 69 +38 +45 очень
душно
1012.1 1012.0
12 21.01 С 2 8000 м мгла 9/3 540 м
[Cu med, cong Ac trans Cs]
+28.1 +22.3 71 +37 +37 очень
душно
1011.1 1011.0 +29.5
15 21.01 С 1 8000 м мгла 9/1 540 м
[Cu med, cong Ac trans Cs]
+27.0 +22.3 75 +35 +35 очень
душно
1013.1 1013.0
18 21.01 С 1 8000 м мгла 9/1 540 м
[Cu med, cong Ac trans Cs]
+26.9 +22.8 78 +36 +36 очень
душно
1013.6 1013.5
21 21.01 С 1 8000 м мгла 9/3 540 м
[Cu med, cong Ac trans Cs]
+26.3 +22.6 80 +35 +35 очень
душно
1011.7 1011.6
00 22.01 С 1 8000 м мгла 8/3 540 м
[Cu med, cong Cs]
+26.6 +22.5 78 +35 +35 очень
душно
1011.7 1011.6
03 22.01 С 1 8000 м мгла 9/3 540 м
[Cu med, cong Ac und]
+27.1 +22.8 77 +36 +37 очень
душно
1013.6 1013.5 +24.8
06 22.01 С 2 8000 м мгла 9/3 540 м
[Cu med, cong Ac trans Cs]
+28.7 +23.6 74 +39 +47 очень
душно
1013.4 1013.3
09 22.01 С 2 8000 м мгла 6/3 540 м
[Cu med, cong Ac trans Ci sp]
+29.2 +23.4 71 +40 +49 очень
душно
1010.8 1010.7
12 22.01 С 2 8000 м мгла 4/3 540 м
[Cu med, cong Ac trans Ci sp]
+28.2 +22.8 73 +38 +39 очень
душно
1010.5 1010.4 +30.0
15 22.01 С 2 10 км 6/3 540 м
[Cu med, cong Ac trans Ci sp]
+27.6 +22.6 74 +36 +36 очень
душно
1012.8 1012.7
18 22.01 С 2 10 км 9/3 540 м
[Cu med, cong Ac trans]
+27.5 +23.1 77 +37 +37 очень
душно
1014.0 1013.9
21 22.01 С 3 10 км 8/3 540 м
[Cu med, cong Ac trans Ci sp]
+27.0 +23.8 83 +37 +37 очень
душно
1011.3 1011.2
00 23.01 С 2 10 км 8/3 540 м
[Cu med, cong Ac trans Ci sp]
+26.6 +23.1 81 +36 +36 очень
душно
1010.9 1010.8
03 23.01 С 1 10 км 6/3 540 м
[Cu med, cong Ci sp]
+27.5 +22.8 76 +37 +40 очень
душно
1013.2 1013.1 +26.0
06 23.01 С 2 10 км 5/1 540 м
[Cu med, cong Ac trans Ci sp]
+29.5 +23.7 71 +40 +53 опасность
солнечного
удара
1012.9 1012.8
09 23.01 С 2 10 км 5/3 540 м
[Cu med, cong Ac trans Ci sp]
+29.5 +24.0 72 +41 +50 опасность
перегрева
1011.5 1011.4
12 23.01 С 2 9000 м 9/3 540 м
[Cu med, cong Ac trans Ci sp]
+28.2 +23.2 74 +38 +39 очень
душно
1011.8 1011.7 +29.7
15 23.01 С 2 8000 м мгла 9/3 540 м
[Cu med, cong Ac trans Ci sp]
+27.4 +22.4 74 +36 +36 очень
душно
1013.8 1013.7
18 23.01 С 2 9000 м 9/3 540 м
[Cu med, cong Ac trans Cs]
+27.2 +22.5 76 +36 +36 очень
душно
1014.1 1014.0

 

Местоположение метеостанции Каадедхдху (Мальдивы): широта 0.48 долгота 72.98 высота над уровнем моря 2 м.

В архиве по умолчанию представлена погода на Каадедхдху за последнюю неделю. Архивные данные за месяц целиком и за предыдущие месяцы, начиная с января 2011 года, Вы можете получить, выбрав интересующий диапазон дат из раскрывающегося списка и нажав кнопку "Ввод!".


*Определитесь, кто Вы:
робот инопланетянин человек

Внимание! Время в таблицах - всемирное. Для получения местного времени необходимо прибавить поправку, которая равна 5 ч.

Смотрите также архив погоды в соседних городах и на ближайших метеорологических станциях:

Погода в Гане (Мальдивы) (130 км)
Погода на Кадхдху (Мальдивы) (166 км)
Погода в Мале (Мальдивы) (418 км)
Погода на Ханимааду (Мальдивы) (695 км)
Погода на Миникое (Лакшадвип, Индия) (870 км)
Погода в Каньякумари (Тамилнад, Индия) (983 км)
Погода в Тривандрам аэропорту (Керала, Индия) (992 км)
Погода в Тривандраме (Керала, Индия) (993 км)
Погода в Галле (Шри Ланка) (1013 км)
Погода в Ратмалане (Шри Ланка) (1041 км)

Пояснения к столбцам:

Ветер - указаны скорость ветра в м/с - средняя за 10 мин, порывы в срок и между сроками (в фигурных скобках) и направление, откуда дует ветер: С - северный, СВ - северо-восточный, В - восточный, ЮВ - юго-восточный, Ю - южный, ЮЗ - юго-западный, З - западный, СЗ - северо-западный.
Видимость - горизонтальная дальность видимости в метрах или километрах. При видимости от 1 до 10 км при отсутствии осадков обычно наблюдается дымка, при ухудшении видимости до 1 км и менее - туман. В сухую погоду видимость может ухудшаться дымом, пылью или мглою.
Явления - указаны атмосферные явления, наблюдавшиеся в срок или в последний час перед сроком; фигурными скобками обозначены явления, наблюдавшиеся между сроками (за 1-3 часа до срока); квадратными скобками обозначены град или гололедные отложения с указанием их диаметра в мм.
Облачность - указаны через наклонную черту общая и нижняя облачность в баллах и высота нижней границы облаков в метрах; квадратными скобками обозначены формы облаков: Ci - перистые, Cs - перисто-слоистые, Cc - перисто-кучевые, Ac - высококучевые, As - высокослоистые, Sc - слоисто-кучевые, Ns - слоисто-дождевые, Cu - кучевые, Cb - кучево-дождевые. Подробнее классификацию облаков см. в Атласе облаков (PDF).
T - Температура воздуха - температура, измеренная на высоте 2 м над землей.
Td - Температура точки росы - температура, при понижении до которой содержащийся в воздухе водяной пар достигнет насыщения.
f - Относительная влажность воздуха - влажноcть воздуха, измеренная на высоте 2 м над землей.
Te - Эффективная температура - температура, которую ощущает одетый по сезону человек в тени. Характеристика душности погоды. При расчете учитывается влияние влажности воздуха и скорости ветра на теплоощущения человека.
Tes - Эффективная температура на солнце - температура, которую ощущает человек, с поправкой на солнечный нагрев. Характеристика знойности погоды. Зависит от высоты солнца над горизонтом, облачности и скорости ветра. Ночью, в пасмурную погоду, а также при ветре 12 м/с и более поправка равна нулю.
P - Атмосферное давление - приведенное к уровню моря атмосферное давление.
Po - Атмосферное давление - измеренное на уровне метеостанции атмосферное давление.
Tmin - Минимальная температура - минимум температуры воздуха на высоте 2 м над землей.
Tmax - Максимальная температура - максимум температуры воздуха на высоте 2 м над землей.
R - Количество осадков - Количество выпавших осадков за период времени, мм. При наведении курсора мыши на число - период времени, за который выпало указанное количество осадков.
R24 - Количество осадков - Количество выпавших осадков за 24 часа, мм.
S - Снежный покров - Высота снежного покрова, см. При наведении курсора мыши на число - состояние снежного покрова и степень покрытия местности в баллах.